Location: Sungai Kamana Besar
(2.6333°N, 113.4333°E)
Time: 04:50:46
(UTC+00:00)

Cosmos 1934 Rocket - Pass Details

Date: 29 May 2022
Orbit: 937 x 1000 km, 83.0° (Epoch: 26 June)

Event Time Altitude Azimuth Distance (km) Brightness Sun altitude
Rises 21:32:03 0° 343° (NNW) 3,591 7.1 -11.0°
Reaches altitude 10° 21:34:39 10° 337° (NNW) 2,644 6.3 -10.4°
Maximum altitude 21:40:17 42° 267° (W) 1,299 4.3 -9.1°
Drops below altitude 10° 21:45:57 10° 198° (SSW) 2,648 5.9 -7.8°
Sets 21:48:34 0° 191° (S) 3,597 6.6 -7.2°
